Orbital Elements at Epoch 2459000.5 (2020-May-31.0) TDB
Reference: JPL 33 (heliocentric ecliptic J2000)
Element | Value | Uncertainty (1-sigma) | Units |
e | .05072686223659147 | 2.8643e-08 | |
a | 2.524740883418235 | 9.2309e-09 | au |
q | 2.396668700441988 | 7.3769e-08 | au |
i | 5.134758587909872 | 3.4569e-06 | deg |
node | 97.60698211347272 | 3.8716e-05 | deg |
peri | 143.7866003088109 | 5.4315e-05 | deg |
M | 306.7786611197902 | 3.8313e-05 | deg |
tp | 2459217.124184581914 (2021-Jan-02.62418458) | 0.00015598 | TDB |
period | 1465.290202958185 4.01 | 8.0361e-06 2.2e-08 | d yr |
n | .2456851204445495 | 1.3474e-09 | deg/d |
Q | 2.652813066394482 | 9.6992e-09 | au |
|
| | Orbit Determination Parameters
Additional Information
|